Regional Weather Roundup
Issued by NWS Charleston, WV

Home | Current Version | Previous Version | Graphics & Text | Print | Product List | Glossary On
Versions: 1 2 3 4 5 6 7 8 9 10 11 12 13 14 15 16 17 18 19 20 21 22 23 24 25 26 27
000
ASUS41 KRLX 171810
RWRRLX
West Virginia Regional Weather Roundup
National Weather Service Charleston WV
100 PM EST WED JAN 17 2018

Note: "fair" indicates few or no clouds below 12,000 feet with no
significant weather and/or obstructions to visibility.

WVZ003-171900-
Northern Panhandle of West Virginia

CITY           SKY/WX    TMP DP  RH WIND       PRES   REMARKS
WHEELING       PTSUNNY    9   2  73 SW7       30.44F WCI  -2
$$

WVZ009-171900-
Northwest West Virginia

CITY           SKY/WX    TMP DP  RH WIND       PRES   REMARKS
PARKERSBURG    LGT SNOW   9   2  73 CALM      30.53F
$$

WVZ006-171900-
Western West Virginia

CITY           SKY/WX    TMP DP  RH WIND       PRES   REMARKS
HUNTINGTON     FLURRIES  11   3  70 W7        30.53F WCI   0
$$

WVZ015-171900-
West Central West Virginia

CITY           SKY/WX    TMP DP  RH WIND       PRES   REMARKS
CHARLESTON     CLOUDY    12   2  64 NW6       30.50F WCI   3
$$

WVZ022-031-171900-
North Central West Virginia

CITY           SKY/WX    TMP DP  RH WIND       PRES   REMARKS
CLARKSBURG     LGT SNOW  12   4  70 CALM      30.44F
MORGANTOWN     LGT SNOW  10   3  73 W6        30.44F WCI   0
$$

WVZ025-035-042-045-171900-
Southern West Virginia

CITY           SKY/WX    TMP DP  RH WIND       PRES   REMARKS
BECKLEY        PTSUNNY   12   4  70 N10       30.29F WCI  -1
LOGAN          FLURRIES   9   3  78 NW6       30.43F WCI  -1
BLUEFIELD        N/A     11   3  70 NW8       30.25F WCI  -1
LEWISBURG      PTSUNNY   19   7  61 CALM      30.24F
$$

WVZ047-171900-
Northern Mountains of West Virginia

CITY           SKY/WX    TMP DP  RH WIND       PRES   REMARKS
ELKINS         PTSUNNY   13   4  67 N7        30.33F WCI   3
$$

WVZ052-171900-
Eastern Panhandle of West Virginia

CITY           SKY/WX    TMP DP  RH WIND       PRES   REMARKS
MARTINSBURG      N/A     19   5  54 NW12      30.36F WCI   7
PETERSBURG       N/A     21   7  54 CALM      30.37F
$$




USA.gov is the U.S. government's official web portal to all federal, state and local government web resources and services.